EFW6KJ LPMA-EGKK

Flight info

Callsign EFW6KJ
Flight time N/A
Altitude 34000
Route DEGUN1W DEGUN DCT RULET DCT GALPA DCT VABEM/N0450F360 DCT TUNAV DCT IBIDO DCT DEMOS DCT KORUL DCT FEJAC DCT JSY/N0440F340 DCT REVTU UP88 VASUX VASUX1G
Aircraft A321/M-SDE3FGIJ1KRWXY/SB1

Departure

Time 2026-05-04 15:09
Airport Cristiano Ronaldo International Airport (LPMA)

Arrival

Time N/A
Airport London Gatwick Airport (EGKK)
Time Latitude Longitude Altitude Speed Heading
2026-05-04 14:11 32.69309 -16.77728 170 ft 0 kts 138°
2026-05-04 14:59 32.69310 -16.77728 169 ft 1 kts 138°
2026-05-04 14:59 32.69343 -16.77764 169 ft 4 kts 121°
2026-05-04 15:00 32.69345 -16.77787 169 ft 4 kts 48°
2026-05-04 15:00 32.69329 -16.77808 169 ft 2 kts 46°
2026-05-04 15:00 32.69328 -16.77809 169 ft 0 kts 46°
2026-05-04 15:02 32.69329 -16.77807 169 ft 2 kts 46°
2026-05-04 15:03 32.69345 -16.77787 169 ft 4 kts 46°
2026-05-04 15:03 32.69368 -16.77759 169 ft 5 kts 46°
2026-05-04 15:03 32.69396 -16.77725 169 ft 6 kts 46°
2026-05-04 15:03 32.69429 -16.77684 169 ft 7 kts 46°
2026-05-04 15:04 32.69466 -16.77637 169 ft 8 kts 46°
2026-05-04 15:04 32.69510 -16.77584 169 ft 9 kts 46°
2026-05-04 15:04 32.69557 -16.77524 169 ft 10 kts 46°
2026-05-04 15:04 32.69610 -16.77459 169 ft 11 kts 46°
2026-05-04 15:05 32.69668 -16.77388 169 ft 12 kts 46°
2026-05-04 15:05 32.69729 -16.77312 173 ft 12 kts 46°
2026-05-04 15:05 32.69776 -16.77254 178 ft 9 kts 46°
2026-05-04 15:05 32.69821 -16.77199 182 ft 8 kts 44°
2026-05-04 15:06 32.69891 -16.77178 187 ft 11 kts 359°
2026-05-04 15:06 32.69975 -16.77178 187 ft 15 kts 359°
2026-05-04 15:06 32.70062 -16.77125 187 ft 15 kts 44°
2026-05-04 15:07 32.70232 -16.76927 193 ft 18 kts 45°
2026-05-04 15:07 32.70330 -16.76833 190 ft 18 kts 20°
2026-05-04 15:07 32.70408 -16.76789 187 ft 10 kts 69°
2026-05-04 15:07 32.70366 -16.76770 189 ft 9 kts 225°
2026-05-04 15:08 32.70358 -16.76780 188 ft 1 kts 224°
2026-05-04 15:08 32.70265 -16.76887 194 ft 51 kts 224°
2026-05-04 15:08 32.69837 -16.77389 193 ft 119 kts 225°
2026-05-04 15:08 32.69106 -16.78240 190 ft 170 kts 223°
2026-05-04 15:09 32.68216 -16.79121 803 ft 169 kts 203°
2026-05-04 15:09 32.67048 -16.79308 1416 ft 177 kts 174°
2026-05-04 15:09 32.65742 -16.79171 1672 ft 197 kts 181°
2026-05-04 15:10 32.62779 -16.79488 2196 ft 235 kts 187°
2026-05-04 15:10 32.61083 -16.79704 2604 ft 253 kts 184°
2026-05-04 15:10 32.58056 -16.77834 3889 ft 268 kts 117°
2026-05-04 15:11 32.57723 -16.75664 4595 ft 274 kts 82°
2026-05-04 15:11 32.58460 -16.73597 5263 ft 277 kts 53°
2026-05-04 15:11 32.59635 -16.71764 5955 ft 280 kts 53°
2026-05-04 15:11 32.60828 -16.69916 6634 ft 283 kts 53°
2026-05-04 15:12 32.61911 -16.67979 7234 ft 287 kts 54°
2026-05-04 15:12 32.63173 -16.66123 7858 ft 290 kts 47°
2026-05-04 15:12 32.64576 -16.64380 8488 ft 293 kts 44°
2026-05-04 15:12 32.66033 -16.62667 9141 ft 296 kts 43°
2026-05-04 15:13 32.67507 -16.60938 9782 ft 299 kts 43°
2026-05-04 15:13 32.68989 -16.59165 10306 ft 308 kts 44°
2026-05-04 15:13 32.70535 -16.57274 10431 ft 329 kts 45°
2026-05-04 15:13 32.72161 -16.55245 10555 ft 348 kts 45°
2026-05-04 15:14 32.73837 -16.53126 10756 ft 363 kts 45°
2026-05-04 15:14 32.75575 -16.50913 11219 ft 369 kts 46°
2026-05-04 15:14 32.77334 -16.48670 11752 ft 372 kts 45°
2026-05-04 15:14 32.79111 -16.46406 12281 ft 376 kts 45°
2026-05-04 15:15 32.80908 -16.44117 12830 ft 380 kts 45°
2026-05-04 15:15 32.82718 -16.41816 13359 ft 383 kts 45°
2026-05-04 15:15 32.84554 -16.39490 13895 ft 387 kts 45°
2026-05-04 15:16 32.88282 -16.34796 14923 ft 391 kts 42°
2026-05-04 15:16 32.90473 -16.32899 15398 ft 391 kts 28°
2026-05-04 15:16 32.95204 -16.29697 16357 ft 396 kts 27°
2026-05-04 15:17 32.97617 -16.28079 16829 ft 399 kts 27°
2026-05-04 15:17 33.02483 -16.24812 17780 ft 404 kts 27°
2026-05-04 15:17 33.04939 -16.23157 18240 ft 406 kts 27°
2026-05-04 15:18 33.07409 -16.21493 18630 ft 409 kts 27°
2026-05-04 15:18 33.09897 -16.19814 18988 ft 412 kts 27°
2026-05-04 15:18 33.12402 -16.18121 19362 ft 415 kts 27°
2026-05-04 15:19 33.17419 -16.14718 20077 ft 420 kts 27°
2026-05-04 15:19 33.19973 -16.12988 20425 ft 423 kts 27°
2026-05-04 15:19 33.25139 -16.09484 21125 ft 429 kts 27°
2026-05-04 15:20 33.27744 -16.07713 21491 ft 433 kts 27°
2026-05-04 15:20 33.30371 -16.05923 21871 ft 435 kts 27°
2026-05-04 15:20 33.33015 -16.04121 22228 ft 438 kts 26°
2026-05-04 15:20 33.35681 -16.02307 22562 ft 441 kts 26°
2026-05-04 15:21 33.38360 -16.00489 22894 ft 444 kts 26°
2026-05-04 15:21 33.41022 -15.98682 23207 ft 447 kts 26°
2026-05-04 15:21 33.46460 -15.94975 23881 ft 451 kts 27°
2026-05-04 15:22 33.49197 -15.93100 24199 ft 453 kts 27°
2026-05-04 15:22 33.51941 -15.91221 24492 ft 455 kts 27°
2026-05-04 15:22 33.57463 -15.87437 25049 ft 458 kts 27°
2026-05-04 15:23 33.60244 -15.85532 25341 ft 460 kts 27°
2026-05-04 15:23 33.62998 -15.83646 25615 ft 462 kts 27°
2026-05-04 15:23 33.65796 -15.81728 25892 ft 464 kts 27°
2026-05-04 15:23 33.68606 -15.79797 26163 ft 466 kts 27°
2026-05-04 15:24 33.74258 -15.75909 26735 ft 470 kts 27°
2026-05-04 15:24 33.78995 -15.72651 27165 ft 473 kts 26°
2026-05-04 15:25 33.81863 -15.70679 27423 ft 475 kts 26°
2026-05-04 15:25 33.84736 -15.68699 27679 ft 478 kts 27°
2026-05-04 15:25 33.87632 -15.66699 27928 ft 480 kts 27°
2026-05-04 15:26 33.93448 -15.62670 28451 ft 483 kts 26°
2026-05-04 15:26 33.96365 -15.60649 28681 ft 485 kts 26°
2026-05-04 15:26 34.02243 -15.56578 29109 ft 488 kts 26°
2026-05-04 15:27 34.05157 -15.54557 29307 ft 490 kts 26°
2026-05-04 15:27 34.11100 -15.50435 29702 ft 493 kts 26°
2026-05-04 15:28 34.17039 -15.46305 30240 ft 492 kts 26°
2026-05-04 15:28 34.19998 -15.44239 30459 ft 492 kts 26°
2026-05-04 15:28 34.25921 -15.40101 30901 ft 491 kts 26°
2026-05-04 15:29 34.28870 -15.38043 31182 ft 489 kts 25°
2026-05-04 15:30 34.40570 -15.29872 32122 ft 486 kts 26°
2026-05-04 15:30 34.49359 -15.23709 32717 ft 486 kts 26°
2026-05-04 15:31 34.55222 -15.19581 33118 ft 487 kts 25°
2026-05-04 15:31 34.58157 -15.17513 33291 ft 488 kts 25°
2026-05-04 15:32 34.66935 -15.11337 33845 ft 488 kts 25°
2026-05-04 15:32 34.72818 -15.07186 34148 ft 488 kts 25°
2026-05-04 15:34 34.87417 -14.96827 34166 ft 483 kts 25°
2026-05-04 15:34 34.96118 -14.90646 34166 ft 482 kts 25°
2026-05-04 15:35 35.04783 -14.84471 34176 ft 483 kts 25°
2026-05-04 15:36 35.13498 -14.78259 34183 ft 483 kts 25°
2026-05-04 15:36 35.19311 -14.74094 34186 ft 484 kts 25°
2026-05-04 15:37 35.25080 -14.69948 34192 ft 484 kts 25°
2026-05-04 15:37 35.30890 -14.65777 34192 ft 484 kts 25°
2026-05-04 15:38 35.36706 -14.61601 34212 ft 483 kts 25°
2026-05-04 15:38 35.42461 -14.57443 34187 ft 478 kts 25°
2026-05-04 15:39 35.48190 -14.53304 34199 ft 477 kts 25°
2026-05-04 15:40 35.56777 -14.47093 34196 ft 477 kts 25°
2026-05-04 15:40 35.62455 -14.42986 34195 ft 476 kts 25°
2026-05-04 15:41 35.68165 -14.38847 34200 ft 475 kts 25°